Vorticity
6 8 9 10 11 13 14 10 6 6 5 6 7 7 6 5 6 2 1 4 4 5 5 4 3 3 4 4 4 5 5 4 5 5 4 3 1 4 5 4 5 5 6 5 5 5 6 5 5 5 5 5 7 8 11 12 10 7 5 4 4 4 4 5 5 5 5 5 5 5 5 5 6 7 7 6 6 6 6 6 5 6 5 6 6 6 6 6 6 6 5 5 7 6 7 7 6
6 8 9 9 9 8 9 8 6 6 3 3 5 5 4 4 7 3 1 4 4 5 3 2 3 4 4 4 4 5 6 4 4 6 6 5 4 5 5 5 5 5 6 5 5 5 5 5 5 5 5 7 8 10 11 10 7 5 4 3 4 4 5 4 5 5 5 5 5 5 5 6 5 5 6 6 6 5 6 6 6 6 7 8 8 8 7 7 6 5 5 6 6 5 5 6 7
6 8 9 6 6 6 6 6 5 6 1 0 3 4 4 3 5 2 2 5 0 2 4 3 3 3 3 4 4 4 6 5 4 5 6 5 5 5 5 6 6 6 6 6 6 5 5 5 6 6 7 8 9 9 8 6 5 4 4 4 4 5 5 5 4 4 4 5 5 5 5 5 5 4 4 4 4 4 4 4 4 6 7 7 8 8 8 8 7 5 5 5 5 5 5 7 9
7 6 7 6 5 4 4 5 3 5 3 3 3 1 4 5 8 6 4 9 4 1 3 4 4 4 4 4 5 5 5 5 5 4 5 5 5 5 5 5 6 6 5 5 6 6 6 6 7 8 8 8 8 7 7 6 5 4 4 4 5 5 5 4 4 4 4 5 5 5 5 4 5 4 4 4 4 4 3 3 4 5 6 6 6 7 8 8 6 5 5 7 6 5 5 7 8
8 6 5 5 7 8 5 4 2 3 3 5 4 1 3 2 7 10 6 10 10 6 4 5 6 6 6 6 6 6 6 6 6 6 6 6 5 5 4 4 5 5 5 6 6 6 6 7 7 8 8 8 7 7 6 6 5 4 5 4 4 4 4 4 3 4 4 5 5 4 4 4 3 4 3 3 4 4 4 4 5 5 5 6 7 6 6 6 5 5 7 9 6 4 6 7 6
8 7 7 5 7 10 8 8 8 6 5 6 5 3 4 2 3 7 5 5 5 4 3 5 5 6 7 7 7 7 7 7 6 6 5 4 4 4 5 5 6 6 6 6 6 7 7 7 7 7 7 7 7 7 6 5 5 4 5 5 4 4 4 4 3 4 4 4 3 3 3 3 3 3 3 3 3 4 4 5 5 5 5 6 7 7 6 7 10 13 21 22 14 8 6 6 6
6 5 6 6 6 8 8 9 10 9 9 8 7 6 4 3 3 2 4 3 1 2 3 4 5 6 7 7 7 6 6 5 5 5 4 4 5 5 6 6 6 6 7 7 7 8 8 8 7 7 7 7 7 7 6 6 5 5 4 5 4 4 4 4 3 3 4 3 2 3 3 4 4 4 4 5 5 4 4 4 5 5 5 5 5 7 7 9 12 14 17 15 10 7 4 5 5
5 4 4 5 4 6 7 7 8 9 7 7 7 10 9 6 5 3 4 5 4 5 5 7 7 7 7 7 6 6 5 5 5 5 5 5 6 6 6 6 6 7 7 8 8 8 7 7 7 7 7 7 7 7 6 6 5 5 4 4 4 4 4 4 3 4 4 3 3 3 4 4 4 4 5 5 4 4 3 2 3 3 4 3 3 5 6 9 9 7 4 -2 1 4 2 4 4
5 4 5 5 4 3 4 5 8 8 5 7 8 8 9 8 7 6 7 7 7 8 8 8 8 8 6 5 5 5 5 4 5 5 5 5 6 6 6 7 7 8 7 8 7 7 7 6 7 6 7 7 7 7 6 6 5 5 4 3 4 4 4 3 4 4 5 4 4 4 4 4 3 4 4 3 3 3 3 3 4 4 4 5 5 5 5 5 6 6 6 5 7 7 6 7 6
6 6 6 5 5 3 2 3 6 7 3 4 7 6 5 6 6 7 7 8 8 8 8 6 5 5 4 5 5 5 5 5 5 5 6 6 6 6 6 7 7 7 7 7 7 6 6 6 6 6 7 7 6 6 6 6 5 5 5 4 4 4 4 3 4 4 4 4 4 4 4 4 4 3 3 3 3 3 4 5 6 6 6 6 6 6 6 7 7 7 7 8 8 8 9 11 9
6 8 7 7 7 5 4 3 6 9 4 -0 3 5 6 7 7 6 6 6 6 6 6 5 4 3 4 5 4 4 5 5 5 5 6 6 6 7 7 7 7 7 7 7 7 6 6 6 6 6 6 6 6 6 6 6 6 5 5 5 5 5 4 4 4 4 4 4 4 4 4 4 4 4 4 4 4 5 5 6 6 6 5 5 5 5 5 6 6 6 6 7 6 7 8 10 11
5 8 8 9 9 8 7 4 5 8 5 1 3 6 6 5 6 6 5 5 5 4 4 4 4 4 5 5 5 6 6 6 7 7 7 7 7 8 7 7 7 7 7 7 7 7 6 7 7 7 7 7 6 6 6 5 5 6 6 6 5 5 5 5 5 5 5 5 5 5 5 4 4 5 5 5 6 6 6 6 5 5 5 4 4 5 5 5 5 5 5 6 7 8 8 8 8
4 6 7 8 8 8 8 5 5 7 8 6 3 6 6 4 6 6 5 5 5 5 4 4 4 5 6 6 7 6 7 7 8 7 7 7 7 7 7 7 7 6 7 7 7 7 7 7 7 7 7 7 6 5 5 5 5 5 6 6 6 6 6 6 6 6 6 6 6 5 5 5 5 5 5 5 5 5 5 5 6 5 5 5 6 6 6 5 5 5 5 5 6 7 7 8 7
3 5 6 6 7 7 7 7 7 6 10 9 3 4 7 5 5 5 5 5 5 4 4 5 5 5 6 6 7 6 7 7 6 7 6 7 7 7 7 7 7 7 7 7 7 7 8 8 8 8 7 6 6 5 5 5 5 5 6 7 7 7 7 7 7 7 7 6 5 6 6 6 6 6 5 5 5 5 6 6 6 6 6 6 6 5 5 5 5 5 5 5 5 6 6 7 8
4 4 5 4 5 7 6 5 6 7 8 6 5 6 5 4 4 4 5 4 4 4 4 5 5 5 7 7 7 7 7 7 6 7 7 7 7 6 7 7 7 8 8 8 8 8 8 8 8 8 7 7 6 6 5 6 6 6 6 7 7 7 8 8 7 6 6 7 6 5 5 6 6 6 6 6 6 6 6 6 6 6 7 6 6 6 6 6 6 6 5 6 5 5 6 5 6
6 5 4 4 2 5 6 4 2 6 7 3 6 8 3 4 6 5 4 3 4 5 5 5 6 6 7 7 7 8 7 7 7 7 7 6 7 6 7 7 7 7 8 8 8 9 9 8 8 8 8 8 7 7 7 7 7 7 6 7 7 7 7 7 7 6 5 7 8 7 6 6 6 7 7 7 7 6 6 6 6 6 6 6 7 7 6 6 6 6 5 5 5 4 5 5 4
6 4 4 3 0 3 5 5 4 3 4 3 7 7 2 5 5 5 5 5 5 4 6 7 7 7 6 7 6 7 7 7 7 6 7 6 6 7 7 7 7 8 8 8 8 8 8 8 8 8 9 9 8 8 8 8 8 7 7 6 7 6 7 6 7 7 6 5 6 8 8 7 7 7 7 7 7 7 6 6 6 6 6 6 6 6 6 6 6 5 5 5 5 5 4 5 4
7 4 4 0 -0 5 2 3 7 4 3 2 6 5 1 5 4 4 4 5 7 7 9 8 9 8 6 7 6 6 6 6 7 6 6 6 7 7 7 8 8 8 8 8 8 8 8 7 7 7 7 7 7 7 7 7 6 7 6 6 6 7 7 7 7 8 8 6 5 6 7 8 8 7 7 7 7 7 7 7 7 6 6 6 5 6 5 5 6 5 5 4 4 4 4 5 4
7 5 4 -1 1 6 -0 1 3 4 7 -1 1 5 2 5 4 5 6 8 10 9 10 8 7 7 6 7 6 6 6 6 6 6 6 6 7 7 8 8 8 8 7 8 7 8 8 8 8 7 7 6 6 6 6 6 6 6 6 6 6 6 6 6 7 7 8 8 6 5 5 6 6 7 6 6 7 7 7 6 6 7 6 6 6 6 6 5 5 5 5 5 4 4 4 4 5
8 7 6 3 4 4 -0 2 -2 3 12 -0 -0 5 2 8 7 4 7 7 9 9 10 9 7 7 6 6 6 6 6 6 6 6 7 7 7 7 7 7 7 7 7 7 7 7 7 7 7 6 6 6 6 6 6 6 6 6 6 6 5 5 5 6 6 6 6 7 7 6 6 5 5 6 6 5 6 6 6 6 5 6 6 6 6 6 6 5 5 5 5 5 5 5 5 5 5
9 8 6 6 5 4 2 2 -1 4 10 1 2 5 5 17 18 10 6 6 8 9 8 7 7 7 7 7 7 7 7 7 7 7 7 7 7 7 7 6 6 6 6 5 5 5 5 5 5 5 5 5 5 5 5 6 6 6 6 6 5 5 5 5 6 6 6 6 6 7 6 6 5 5 5 4 4 4 5 5 5 4 4 4 4 4 5 5 5 5 5 6 5 5 5 5 5
8 7 6 8 6 7 5 2 4 7 8 4 4 6 5 14 19 14 10 8 9 8 7 7 7 7 7 7 7 7 7 6 6 6 7 7 7 7 6 6 5 5 5 5 5 4 4 4 4 4 4 4 4 5 5 5 5 5 6 6 6 5 5 4 4 5 5 5 5 5 6 5 5 5 4 4 4 3 3 4 4 4 3 3 3 3 3 4 5 5 5 5 6 5 5 6 6
7 4 3 5 3 6 5 2 6 6 8 7 5 4 2 6 11 11 9 8 8 8 8 8 7 6 6 6 6 5 6 6 6 6 6 6 6 6 5 5 5 5 5 5 5 5 4 4 4 4 4 4 5 5 5 5 5 5 5 5 5 5 5 4 4 4 4 5 5 4 4 5 5 6 6 6 5 5 3 3 4 4 4 3 3 2 2 3 3 4 4 4 4 5 5 4 6
2 2 4 7 7 9 9 9 11 9 11 11 8 4 2 5 7 6 7 6 7 7 6 6 6 6 5 5 5 5 5 5 6 6 5 5 5 5 5 5 5 5 5 4 4 4 4 4 4 5 5 5 5 5 5 5 5 5 4 4 4 4 5 5 4 5 5 5 5 5 5 5 5 5 5 6 6 6 6 4 4 4 5 4 3 3 3 2 2 3 3 4 3 3 4 4 4
4 3 6 7 9 12 10 10 11 8 8 9 8 6 5 7 6 5 8 8 8 7 6 6 6 6 5 5 5 5 5 5 5 5 5 5 5 5 5 5 5 4 4 4 4 5 5 5 5 5 5 5 5 5 5 5 5 4 5 5 5 5 5 5 5 5 5 5 5 5 5 5 5 5 5 4 5 5 5 6 5 5 5 6 5 4 4 3 3 3 3 4 4 3 2 3 4
6 9 15 16 16 20 19 15 14 13 12 11 9 9 9 9 8 9 10 9 8 7 7 6 5 5 4 5 5 5 5 5 5 5 5 5 5 5 4 4 4 4 4 5 5 5 5 5 5 5 4 5 5 5 5 5 5 5 5 5 5 5 5 5 5 5 6 5 5 5 5 5 5 5 5 4 4 4 4 4 5 5 5 5 6 6 5 5 5 4 4 4 5 5 4 4 4
11 17 23 23 15 13 16 13 12 13 13 10 8 9 9 7 9 11 10 8 7 7 7 5 5 4 4 5 5 6 6 5 5 5 5 5 4 4 4 4 4 5 5 5 6 5 5 5 5 5 5 5 5 5 5 5 5 5 5 5 5 5 5 5 5 5 5 5 5 5 4 4 4 4 5 5 5 5 5 5 5 5 4 4 5 5 5 5 5 5 5 5 5 5 6 5 5
17 13 11 11 4 2 7 5 5 8 7 6 6 6 5 6 10 10 8 7 7 7 5 5 5 5 6 6 6 6 5 5 5 5 5 4 4 4 5 5 5 5 5 5 6 6 6 6 6 5 6 6 6 5 5 5 4 4 4 4 5 5 5 5 5 5 5 5 5 5 5 5 6 6 6 6 6 7 7 7 6 6 6 6 5 5 6 5 5 5 5 6 6 5 4 4 5
12 6 5 7 4 3 5 4 5 6 6 6 6 4 4 7 9 7 7 7 7 7 6 6 6 5 6 5 5 6 5 6 5 5 5 5 5 5 5 5 5 5 5 6 6 6 6 6 6 6 7 6 6 5 5 5 5 5 5 5 5 5 5 5 5 6 6 6 7 7 8 8 8 8 8 8 8 8 7 7 7 8 8 7 7 6 6 7 6 6 5 5 6 7 7 6 5
6 5 7 6 4 4 5 7 8 7 6 7 7 5 5 6 6 6 7 8 7 7 7 6 6 6 6 5 6 6 6 6 5 5 5 5 5 5 5 5 5 5 6 6 6 7 7 7 7 7 6 6 6 5 5 5 5 5 5 5 6 6 6 6 7 8 8 9 9 9 9 9 9 9 8 8 8 7 7 7 6 6 7 6 7 7 6 7 7 7 7 6 6 6 7 8 7
4 4 6 8 8 5 3 5 8 8 6 5 5 6 5 4 6 8 8 8 7 7 6 5 5 5 5 5 5 5 6 5 5 5 5 5 5 5 5 5 6 6 6 7 7 7 7 7 7 6 6 6 5 5 5 5 5 6 6 6 6 7 7 8 8 9 9 9 8 8 8 8 8 8 7 7 7 7 6 6 6 5 6 6 5 6 6 5 5 6 7 6 6 6 7 7 8
7 7 6 8 10 8 6 5 6 7 6 5 5 6 5 4 6 8 7 7 7 7 7 6 6 5 5 5 5 5 5 5 5 4 4 4 5 5 6 6 7 7 8 8 8 7 7 6 6 6 5 5 5 5 6 6 7 7 7 7 7 8 8 8 8 7 7 7 7 7 6 6 6 6 6 7 7 7 7 7 7 7 7 7 7 7 7 7 6 6 6 7 6 6 6 7 8
8 8 8 8 10 12 11 8 8 8 7 7 7 6 6 5 6 6 5 6 6 7 6 6 6 5 5 5 4 5 4 4 4 4 5 5 6 7 7 8 8 8 8 7 7 7 7 6 6 5 5 5 6 7 7 7 7 7 7 7 8 8 8 8 8 7 7 6 6 6 6 6 6 6 6 7 7 7 8 8 8 9 9 9 9 8 8 8 8 7 6 7 8 7 7 7 7
5 4 6 9 11 10 9 6 6 8 8 8 7 5 6 7 7 6 6 7 7 7 7 6 6 5 5 5 5 5 4 5 5 5 7 7 8 8 8 8 7 7 6 6 6 6 6 5 5 5 6 7 7 7 8 8 8 8 8 7 7 7 7 7 7 8 8 8 8 7 7 7 7 7 7 7 8 8 8 8 8 8 8 8 9 9 9 8 8 8 7 6 6 7 7 7 6
6 6 3 4 8 9 10 6 4 8 9 8 7 6 9 9 8 8 8 8 7 8 8 8 7 6 6 5 5 5 6 6 7 8 8 8 8 8 7 7 6 6 6 6 7 6 6 5 6 8 8 8 8 8 8 8 8 8 8 8 7 7 7 6 6 7 8 8 9 9 9 8 8 7 7 7 7 7 7 7 7 7 7 7 7 7 7 7 7 7 7 7 6 6 5 5 5
9 11 7 5 7 8 9 6 5 8 9 8 6 8 10 9 8 8 8 8 8 8 8 7 7 7 6 7 7 7 8 8 8 9 8 8 7 7 7 7 7 7 7 7 7 6 7 7 8 9 9 9 10 10 9 8 7 7 8 9 9 8 8 8 7 7 7 7 7 8 8 8 8 8 7 7 7 8 8 8 8 8 8 8 8 8 7 7 7 7 7 7 6 6 6 6 6
11 12 10 8 8 8 9 8 7 8 9 8 8 9 9 8 9 8 7 7 7 7 7 7 7 8 8 8 8 8 9 9 8 8 7 7 7 7 7 7 7 8 8 7 7 7 9 10 10 10 10 9 9 9 10 9 8 8 7 8 9 9 9 9 8 8 7 7 6 6 6 6 8 8 8 9 8 8 8 7 7 7 7 7 7 7 7 7 7 8 8 8 8 7 7 6 6
8 9 9 8 7 6 8 9 8 9 10 9 10 11 9 9 10 9 8 8 8 8 8 8 8 8 8 8 8 8 8 7 7 7 7 7 7 7 7 7 8 8 8 8 9 10 11 12 12 12 11 9 8 8 9 11 10 9 8 7 7 8 8 8 8 8 7 7 7 6 6 6 7 8 10 11 10 10 9 9 9 9 9 9 9 9 9 9 8 8 8 8 9 9 9 9 7
7 7 8 8 7 7 8 9 10 11 11 10 9 10 9 9 9 9 9 9 9 8 7 8 8 8 8 8 8 7 7 7 8 7 7 7 7 7 8 8 8 8 9 11 13 14 14 12 10 10 10 9 9 8 8 9 9 9 9 8 8 7 7 7 7 8 8 7 7 7 6 6 5 6 7 9 9 10 10 9 9 10 11 11 12 13 13 14 14 15 14 13 12 12 12 13 13
9 9 9 8 7 7 8 8 9 8 7 7 8 7 7 7 7 6 7 7 7 7 7 8 7 8 8 8 8 8 8 7 7 7 8 8 7 8 9 10 11 13 14 14 12 11 10 10 9 8 9 9 9 8 7 7 8 8 9 9 9 8 8 7 7 7 8 8 8 8 8 7 5 4 4 5 6 8 11 13 13 12 12 12 12 13 13 14 14 15 15 16 16 14 13 13 14
10 9 8 8 8 7 9 8 7 5 5 7 7 6 5 6 7 6 7 7 8 8 8 8 8 9 9 8 8 8 8 8 8 8 7 7 8 11 13 14 14 14 13 12 10 9 8 8 9 8 8 8 8 8 8 8 7 8 8 8 8 9 9 8 8 8 8 8 9 9 10 11 11 10 9 7 6 7 9 12 15 15 15 15 14 13 12 12 11 11 10 10 12 12 12 10 9
9 6 7 9 9 8 9 8 6 6 6 7 7 7 7 6 6 6 7 8 8 9 9 9 10 9 8 8 8 8 7 7 7 7 8 11 14 16 15 14 13 12 10 10 9 9 9 8 8 7 7 8 8 8 8 8 8 7 7 7 7 7 7 7 8 8 8 8 9 10 11 13 15 15 16 16 14 12 10 10 11 12 12 12 11 9 8 8 7 8 7 6 7 8 9 9 8
6 6 8 9 8 7 7 7 8 8 8 7 6 7 9 7 4 5 8 8 7 8 9 9 9 8 8 7 7 6 7 9 12 13 15 16 16 14 12 11 10 10 10 9 9 8 8 8 8 8 8 8 8 7 7 7 6 6 6 6 6 6 7 7 8 8 10 11 12 13 14 15 16 17 18 19 19 18 15 13 10 9 9 8 8 7 6 5 4 5 6 6 7 7 8 9 9
7 8 8 8 8 8 7 7 9 10 9 7 6 8 11 11 8 6 7 7 8 9 9 8 7 6 6 7 8 11 14 18 17 15 14 14 12 11 10 10 9 9 8 7 8 8 8 8 7 7 7 7 7 6 6 6 5 6 6 6 7 8 9 10 11 12 13 14 15 15 16 16 16 15 15 15 14 14 14 12 10 8 7 6 6 6 5 5 5 5 6 7 7 8 9 10 10
7 7 6 7 8 9 10 8 7 8 8 7 9 10 9 10 11 10 7 6 7 8 8 8 8 9 10 13 15 17 17 16 13 12 13 12 11 9 8 8 8 8 8 8 8 7 7 7 6 6 6 6 6 5 5 6 7 7 9 10 11 11 13 14 15 15 15 15 16 16 15 15 14 13 12 11 10 11 11 11 10 9 8 7 6 6 6 6 6 6 7 8 9 10 12 12 12
9 9 9 9 9 9 10 10 9 8 7 8 10 9 7 7 9 9 8 6 7 9 11 11 12 13 15 16 15 15 14 12 12 13 12 10 9 8 8 8 8 8 8 8 7 7 6 6 5 5 5 5 5 6 7 8 10 11 12 13 13 13 14 15 15 15 15 15 15 15 15 14 13 12 10 9 9 9 10 9 9 9 8 8 8 7 7 7 7 8 9 10 11 12 14 14 13
10 11 11 10 9 8 8 8 8 7 7 9 9 9 9 8 7 8 9 12 13 13 13 13 13 15 15 13 13 14 12 11 11 10 9 8 7 7 8 8 8 8 7 6 6 6 6 5 5 5 5 6 7 8 9 10 11 12 12 13 13 13 14 13 14 13 13 13 13 13 14 13 12 11 10 8 7 7 8 9 8 9 9 9 9 9 8 7 8 9 11 13 13 13 12 12 13
7 7 8 8 8 8 8 7 8 9 10 10 9 9 9 7 8 10 12 14 14 13 13 14 15 15 14 13 13 12 10 9 8 8 7 8 7 8 8 8 8 7 6 5 5 5 5 5 6 6 7 8 9 10 11 11 11 11 12 12 13 13 14 14 13 13 12 12 12 12 12 12 11 10 9 7 6 6 7 9 11 11 11 10 10 9 10 9 10 12 13 14 14 14 13 12 14
11 10 10 10 11 11 9 9 10 10 9 10 10 9 8 6 9 15 16 14 12 14 16 16 14 13 12 12 11 10 9 8 6 7 7 7 8 8 8 7 6 5 5 5 5 5 6 6 7 8 8 9 9 10 10 10 10 11 12 12 13 14 14 14 13 12 12 12 12 12 12 11 10 9 8 7 7 8 8 8 9 11 11 11 11 11 12 13 14 14 14 14 15 15 16 19 24
13 11 11 11 11 12 11 12 13 11 10 11 11 9 9 11 14 18 18 15 14 14 14 13 13 13 12 11 10 8 7 6 6 7 8 8 7 7 6 5 5 4 5 5 6 6 7 7 8 8 8 8 8 9 9 10 10 12 13 13 13 13 12 11 10 10 11 11 12 12 12 12 10 9 8 8 8 8 8 7 6 6 8 10 12 13 14 15 15 15 13 13 16 19 23 29 34
11 12 12 11 10 10 10 10 9 10 11 10 10 12 14 17 17 15 14 15 16 14 11 10 11 10 8 7 7 7 6 6 7 8 7 7 7 6 5 4 4 4 6 6 7 7 7 7 8 8 8 8 8 8 9 11 11 12 12 12 11 11 10 9 9 9 10 11 12 13 13 12 11 10 9 8 8 7 6 6 6 6 6 7 10 12 13 13 13 13 13 14 20 27 31 34 34
9 10 8 8 9 9 8 7 6 8 10 10 13 14 12 12 13 15 15 15 15 14 11 9 6 5 5 6 7 7 7 6 7 8 8 7 5 4 4 4 5 6 7 8 8 8 8 8 8 8 8 8 8 9 10 11 11 11 11 11 10 10 9 9 10 11 12 13 13 14 14 14 12 11 9 7 6 5 5 5 5 5 6 7 9 10 11 11 12 13 14 19 27 32 31 29 27
10 9 8 9 10 6 6 9 9 10 11 12 14 12 7 7 9 13 14 11 10 11 9 7 5 5 5 6 7 7 6 7 8 8 6 5 4 4 5 6 7 8 8 8 8 8 8 7 7 8 8 9 9 10 11 11 11 11 11 11 10 9 9 9 11 12 12 13 14 14 15 15 13 11 10 8 6 5 5 5 4 5 6 7 8 9 10 11 12 15 18 25 30 30 26 23 23
12 11 10 10 8 8 10 12 12 15 14 13 13 12 11 9 8 9 10 8 8 7 6 5 5 5 5 6 7 8 8 8 8 6 4 4 4 4 7 8 9 9 8 8 7 7 7 7 8 8 9 9 10 10 11 11 11 11 10 10 9 9 9 10 11 11 12 12 13 15 16 15 14 12 10 8 7 6 5 5 6 6 7 8 8 8 10 12 15 19 23 28 29 25 22 22 22
11 9 9 8 9 12 13 12 13 15 14 11 10 11 12 12 10 8 6 4 4 4 5 5 4 5 6 7 9 9 9 7 6 5 3 3 4 6 8 9 8 8 7 7 7 7 7 7 8 9 10 10 10 11 11 11 11 10 10 9 9 9 10 11 11 11 12 12 13 15 16 16 14 13 11 10 8 7 6 7 8 8 8 8 8 8 10 14 19 23 27 27 24 21 21 22 23
9 9 9 10 14 15 13 12 12 10 8 9 9 8 9 9 8 7 4 2 4 5 5 4 3 5 6 8 10 9 6 6 5 4 4 4 7 8 8 7 7 6 7 7 7 7 7 7 8 10 11 10 10 11 11 11 10 10 9 9 9 10 11 11 11 11 11 12 13 14 15 15 14 13 12 11 10 9 9 9 9 9 8 8 8 9 12 17 23 26 25 22 20 21 23 24 24
9 11 11 14 17 15 12 11 11 9 7 8 8 6 6 7 7 7 5 4 4 3 3 3 4 6 7 8 9 8 6 6 5 4 5 7 9 9 8 8 7 6 7 7 7 6 6 7 9 11 11 10 10 11 11 10 10 9 10 10 11 11 11 11 11 10 10 11 13 14 15 15 15 14 13 12 11 11 11 11 10 8 8 8 9 11 15 20 25 26 22 18 19 22 24 25 23
13 15 16 16 14 11 10 8 7 8 6 6 7 5 5 8 7 5 3 2 2 3 5 7 7 7 7 8 9 8 6 6 6 6 8 8 9 8 8 7 7 7 8 7 6 6 7 8 11 11 10 10 11 11 11 10 9 9 10 11 11 11 11 11 10 10 11 12 14 15 15 16 15 14 13 12 11 11 10 10 9 8 8 9 11 14 19 23 25 24 19 18 21 23 23 22 18
Height
5794 5795 5796 5796 5798 5798 5799 5800 5800 5800 5802 5803 5803 5803 5801 5802 5804 5804 5805 5804 5805 5806 5807 5807 5806 5807 5807 5807 5807 5807 5807 5807 5807 5806 5806 5807 5807 5807 5806 5806 5806 5806 5806 5806 5806 5806 5806 5806 5807 5807 5808 5808 5808 5808 5808 5808 5808 5807 5806 5806 5805 5806 5806 5806 5806 5806 5806 5807 5807 5807 5807 5807 5807 5807 5807 5807 5806 5806 5806 5806 5806 5806 5806 5807 5807 5807 5807 5807 5807 5806 5806 5807 5807 5807 5807 5807 5807
5791 5792 5793 5794 5795 5796 5796 5797 5798 5798 5799 5800 5801 5799 5797 5801 5802 5799 5802 5803 5803 5804 5805 5804 5804 5804 5805 5805 5805 5805 5804 5804 5804 5804 5804 5803 5803 5803 5803 5803 5803 5803 5804 5804 5804 5804 5804 5804 5804 5805 5805 5805 5806 5806 5806 5805 5805 5804 5803 5803 5803 5803 5803 5803 5803 5803 5804 5804 5804 5804 5804 5804 5804 5804 5804 5804 5803 5803 5803 5802 5803 5803 5803 5803 5803 5803 5803 5803 5803 5803 5802 5803 5803 5803 5803 5804 5803
5789 5790 5791 5792 5793 5793 5794 5795 5796 5796 5797 5798 5799 5797 5796 5799 5797 5796 5800 5801 5801 5801 5802 5802 5801 5802 5802 5802 5802 5802 5802 5801 5801 5801 5801 5801 5800 5800 5800 5800 5800 5800 5801 5801 5801 5802 5802 5802 5802 5802 5802 5802 5803 5803 5802 5802 5801 5800 5800 5800 5800 5800 5800 5800 5800 5800 5801 5801 5801 5802 5802 5801 5801 5801 5801 5801 5800 5800 5800 5800 5800 5800 5799 5800 5800 5799 5799 5799 5799 5799 5799 5799 5799 5799 5799 5800 5800
5786 5787 5788 5789 5790 5791 5792 5793 5794 5794 5795 5796 5796 5795 5794 5795 5794 5795 5797 5797 5798 5799 5799 5799 5798 5799 5799 5799 5800 5800 5799 5799 5798 5798 5798 5798 5797 5797 5797 5797 5798 5798 5798 5799 5798 5799 5799 5799 5799 5799 5799 5800 5800 5800 5799 5798 5798 5797 5798 5798 5798 5797 5797 5797 5797 5798 5798 5798 5798 5799 5799 5798 5798 5798 5798 5797 5797 5797 5797 5797 5797 5797 5796 5796 5796 5796 5796 5796 5795 5795 5795 5795 5795 5795 5796 5796 5796
5784 5785 5786 5787 5788 5789 5790 5790 5791 5792 5793 5794 5793 5792 5792 5792 5792 5793 5793 5793 5795 5796 5796 5796 5796 5796 5796 5796 5797 5797 5796 5796 5796 5796 5795 5795 5794 5794 5794 5794 5795 5796 5796 5796 5796 5796 5796 5796 5796 5796 5796 5797 5797 5796 5796 5796 5796 5795 5795 5795 5795 5794 5794 5794 5794 5795 5795 5795 5795 5795 5795 5795 5795 5795 5794 5793 5793 5793 5793 5793 5794 5793 5793 5793 5793 5793 5793 5792 5792 5791 5792 5792 5792 5793 5793 5793 5793
5782 5783 5784 5785 5786 5786 5787 5788 5789 5790 5790 5791 5789 5789 5789 5789 5790 5790 5790 5791 5792 5792 5793 5793 5793 5794 5794 5794 5794 5794 5794 5794 5793 5793 5792 5792 5791 5791 5791 5792 5792 5792 5793 5793 5793 5793 5793 5793 5793 5793 5793 5793 5793 5793 5793 5793 5793 5793 5792 5792 5792 5791 5791 5791 5791 5792 5792 5792 5792 5792 5792 5792 5792 5791 5790 5790 5790 5790 5790 5790 5790 5790 5790 5790 5789 5790 5789 5789 5789 5789 5789 5790 5790 5790 5791 5790 5789
5781 5782 5782 5783 5784 5784 5785 5786 5787 5787 5787 5788 5787 5787 5787 5788 5788 5787 5787 5788 5788 5789 5790 5790 5791 5791 5791 5791 5791 5791 5791 5791 5790 5790 5789 5789 5789 5789 5789 5789 5789 5789 5790 5790 5790 5790 5790 5789 5790 5790 5790 5790 5790 5790 5790 5790 5790 5790 5790 5789 5789 5788 5788 5788 5788 5788 5789 5789 5789 5789 5788 5788 5788 5788 5787 5787 5787 5787 5787 5787 5787 5787 5787 5787 5786 5786 5786 5785 5785 5786 5787 5787 5787 5788 5788 5787 5786
5779 5780 5780 5781 5782 5782 5783 5784 5785 5785 5784 5785 5785 5784 5785 5786 5785 5784 5784 5784 5785 5786 5787 5788 5788 5788 5788 5789 5788 5788 5788 5787 5787 5787 5786 5786 5786 5787 5787 5787 5786 5786 5787 5787 5787 5786 5786 5786 5786 5786 5786 5786 5787 5787 5787 5787 5786 5786 5786 5786 5786 5785 5785 5785 5785 5785 5785 5785 5785 5785 5785 5785 5784 5784 5784 5783 5783 5783 5783 5783 5783 5783 5783 5783 5783 5782 5782 5782 5781 5782 5783 5784 5784 5784 5785 5784 5784
5777 5777 5778 5779 5779 5780 5781 5782 5782 5782 5782 5782 5783 5782 5782 5783 5782 5781 5781 5781 5783 5784 5784 5785 5786 5786 5785 5786 5785 5785 5785 5784 5784 5784 5784 5784 5784 5784 5784 5784 5784 5784 5784 5783 5783 5783 5783 5783 5783 5783 5783 5783 5783 5783 5783 5783 5783 5783 5783 5782 5782 5782 5782 5782 5782 5782 5782 5782 5782 5781 5781 5781 5780 5781 5780 5779 5779 5779 5779 5780 5780 5780 5779 5779 5779 5779 5779 5779 5778 5778 5778 5779 5779 5779 5779 5780 5780
5775 5775 5776 5776 5777 5778 5779 5779 5780 5779 5779 5780 5781 5780 5780 5780 5779 5779 5778 5779 5781 5781 5781 5783 5783 5783 5782 5783 5782 5782 5781 5781 5781 5781 5781 5781 5782 5782 5782 5781 5781 5781 5781 5780 5780 5780 5780 5780 5779 5779 5780 5780 5779 5779 5779 5779 5779 5779 5779 5779 5779 5778 5778 5778 5778 5778 5778 5778 5778 5777 5777 5777 5776 5776 5776 5776 5776 5775 5775 5776 5776 5776 5775 5775 5775 5775 5775 5776 5775 5775 5775 5774 5774 5775 5775 5775 5775
5772 5773 5773 5774 5774 5775 5776 5777 5777 5774 5775 5779 5779 5778 5778 5778 5777 5776 5775 5777 5778 5777 5779 5780 5779 5779 5779 5779 5779 5779 5778 5778 5778 5778 5778 5778 5778 5779 5779 5778 5778 5778 5778 5777 5777 5777 5776 5776 5776 5776 5776 5776 5776 5775 5776 5775 5775 5775 5775 5775 5775 5775 5775 5775 5775 5774 5774 5774 5774 5773 5773 5772 5772 5772 5772 5772 5772 5772 5772 5771 5771 5772 5771 5771 5771 5771 5771 5771 5772 5771 5771 5771 5771 5771 5771 5771 5770
5770 5770 5771 5772 5772 5773 5774 5774 5774 5769 5772 5777 5776 5776 5775 5775 5774 5773 5773 5774 5775 5775 5776 5776 5776 5776 5776 5776 5776 5775 5775 5774 5775 5775 5775 5775 5775 5775 5775 5775 5775 5775 5775 5774 5774 5773 5773 5773 5773 5772 5773 5772 5772 5772 5772 5772 5771 5771 5771 5771 5771 5771 5771 5771 5770 5770 5770 5770 5769 5768 5768 5768 5768 5768 5768 5769 5769 5768 5767 5767 5767 5767 5767 5767 5767 5767 5767 5767 5767 5767 5767 5767 5766 5767 5767 5767 5766
5768 5768 5768 5770 5770 5771 5771 5771 5772 5767 5769 5772 5773 5774 5772 5772 5772 5770 5772 5773 5772 5771 5771 5772 5772 5773 5773 5772 5772 5772 5771 5771 5772 5772 5772 5771 5772 5772 5772 5772 5771 5771 5771 5771 5771 5770 5770 5770 5769 5769 5769 5769 5769 5768 5768 5768 5768 5767 5767 5767 5767 5767 5767 5767 5767 5766 5765 5765 5764 5764 5763 5763 5764 5764 5764 5765 5764 5764 5763 5763 5763 5763 5763 5763 5763 5763 5762 5762 5762 5762 5762 5762 5762 5762 5762 5762 5763
5765 5765 5766 5767 5768 5769 5769 5769 5769 5766 5766 5767 5770 5772 5769 5770 5769 5767 5770 5771 5769 5768 5768 5769 5769 5770 5770 5770 5769 5769 5768 5768 5768 5768 5768 5768 5768 5768 5768 5768 5768 5768 5767 5767 5767 5767 5767 5766 5766 5765 5766 5765 5765 5765 5764 5764 5764 5764 5763 5764 5764 5763 5763 5763 5763 5762 5761 5761 5760 5759 5759 5759 5759 5760 5760 5760 5759 5759 5759 5759 5759 5759 5759 5759 5758 5758 5758 5757 5758 5758 5757 5758 5758 5758 5758 5758 5759
5762 5763 5763 5765 5765 5766 5766 5766 5766 5763 5762 5763 5768 5769 5767 5766 5765 5766 5768 5767 5765 5765 5765 5766 5766 5766 5767 5767 5766 5765 5765 5765 5765 5765 5765 5765 5765 5765 5764 5764 5764 5764 5764 5764 5763 5763 5763 5763 5762 5762 5762 5762 5761 5761 5761 5761 5760 5760 5759 5759 5759 5759 5758 5758 5758 5758 5757 5756 5756 5755 5755 5755 5755 5756 5755 5755 5755 5755 5755 5754 5754 5754 5754 5754 5754 5754 5753 5753 5753 5753 5753 5753 5753 5753 5754 5754 5754
5760 5760 5761 5762 5763 5763 5763 5763 5762 5760 5758 5761 5765 5765 5763 5762 5763 5764 5764 5763 5763 5762 5762 5762 5763 5763 5763 5763 5762 5762 5762 5762 5762 5762 5762 5762 5762 5761 5761 5761 5761 5760 5760 5760 5760 5760 5760 5760 5759 5759 5758 5758 5758 5758 5758 5757 5756 5756 5756 5755 5755 5754 5754 5753 5753 5753 5753 5752 5751 5751 5751 5751 5751 5751 5751 5751 5750 5750 5750 5750 5749 5749 5749 5749 5749 5749 5748 5748 5748 5748 5748 5748 5748 5749 5749 5749 5749
5757 5758 5758 5759 5761 5760 5760 5758 5756 5757 5758 5759 5760 5761 5760 5760 5760 5760 5760 5760 5760 5759 5760 5760 5760 5760 5760 5760 5759 5759 5759 5759 5759 5759 5759 5759 5758 5758 5758 5757 5757 5757 5756 5756 5756 5756 5756 5756 5756 5755 5755 5754 5754 5754 5754 5753 5752 5752 5752 5750 5750 5750 5749 5749 5748 5748 5748 5748 5747 5747 5747 5746 5746 5747 5747 5746 5746 5746 5745 5745 5745 5745 5744 5744 5744 5744 5744 5744 5744 5743 5743 5743 5744 5744 5745 5745 5745
5755 5755 5755 5757 5758 5757 5755 5753 5753 5756 5757 5755 5755 5758 5758 5757 5757 5756 5756 5757 5756 5757 5756 5756 5756 5756 5756 5756 5756 5756 5756 5756 5756 5756 5756 5756 5755 5755 5754 5754 5753 5753 5753 5753 5753 5752 5752 5752 5752 5752 5751 5751 5751 5750 5750 5749 5748 5748 5747 5746 5746 5745 5745 5745 5744 5744 5744 5744 5743 5743 5742 5742 5742 5742 5742 5742 5741 5741 5741 5741 5741 5740 5739 5739 5739 5739 5739 5739 5739 5739 5738 5739 5739 5739 5740 5740 5740
5752 5752 5752 5754 5755 5751 5751 5752 5752 5753 5753 5752 5753 5755 5755 5753 5753 5753 5753 5753 5753 5753 5753 5753 5753 5753 5753 5753 5753 5752 5752 5752 5752 5752 5752 5752 5752 5751 5751 5750 5750 5749 5749 5749 5749 5749 5748 5748 5748 5748 5747 5747 5747 5746 5746 5745 5744 5743 5743 5742 5742 5741 5741 5740 5740 5740 5740 5739 5739 5738 5738 5738 5738 5738 5738 5737 5736 5736 5735 5736 5736 5735 5735 5734 5734 5734 5734 5734 5734 5733 5734 5734 5734 5734 5734 5734 5735
5748 5748 5750 5751 5749 5746 5748 5751 5751 5749 5748 5749 5750 5751 5751 5750 5749 5749 5750 5750 5749 5749 5749 5750 5749 5749 5749 5749 5749 5749 5749 5749 5749 5748 5748 5748 5748 5748 5747 5747 5746 5746 5746 5746 5746 5745 5745 5745 5744 5744 5744 5743 5743 5742 5741 5741 5740 5739 5739 5738 5738 5737 5737 5736 5735 5735 5735 5735 5735 5734 5734 5733 5733 5733 5733 5733 5732 5731 5731 5731 5730 5730 5729 5729 5729 5729 5728 5728 5728 5728 5728 5728 5729 5729 5729 5729 5729
5745 5746 5747 5746 5744 5743 5746 5749 5748 5746 5744 5745 5747 5747 5747 5745 5745 5746 5746 5746 5746 5746 5746 5746 5746 5746 5746 5746 5745 5745 5745 5745 5745 5745 5744 5744 5744 5744 5743 5743 5743 5742 5742 5742 5742 5742 5742 5741 5741 5740 5740 5739 5738 5738 5737 5736 5736 5735 5734 5734 5733 5733 5732 5731 5731 5731 5731 5730 5730 5730 5729 5729 5728 5728 5728 5728 5727 5727 5727 5726 5726 5726 5725 5724 5724 5724 5723 5723 5722 5722 5722 5722 5723 5724 5723 5724 5724
5742 5742 5743 5742 5741 5741 5744 5747 5745 5742 5740 5742 5744 5744 5743 5741 5741 5742 5742 5742 5742 5742 5742 5742 5743 5742 5742 5742 5742 5742 5742 5742 5741 5741 5740 5740 5740 5740 5739 5739 5739 5739 5738 5738 5738 5738 5738 5737 5737 5736 5735 5735 5734 5733 5733 5732 5731 5730 5730 5729 5728 5728 5728 5727 5726 5726 5726 5726 5725 5725 5724 5724 5723 5723 5722 5722 5721 5721 5721 5721 5720 5720 5720 5719 5719 5718 5718 5717 5717 5716 5716 5716 5717 5718 5718 5718 5718
5739 5739 5739 5739 5739 5739 5740 5742 5741 5739 5737 5739 5741 5739 5738 5738 5738 5738 5738 5739 5739 5739 5739 5739 5739 5739 5739 5739 5739 5739 5738 5738 5738 5737 5737 5736 5736 5736 5735 5735 5735 5735 5734 5734 5734 5733 5733 5733 5732 5731 5731 5730 5729 5729 5728 5727 5727 5726 5725 5724 5724 5723 5723 5723 5722 5721 5721 5720 5720 5719 5719 5718 5718 5717 5717 5716 5716 5715 5714 5714 5714 5713 5713 5712 5712 5712 5711 5711 5711 5710 5710 5710 5710 5711 5712 5712 5712
5736 5736 5735 5735 5736 5736 5735 5735 5737 5736 5734 5736 5737 5735 5735 5734 5734 5734 5734 5735 5735 5736 5736 5736 5736 5735 5735 5735 5735 5735 5735 5734 5734 5733 5733 5732 5732 5732 5732 5731 5731 5730 5730 5730 5729 5729 5728 5727 5727 5726 5725 5725 5724 5724 5723 5722 5722 5721 5720 5720 5719 5718 5718 5718 5717 5716 5715 5715 5714 5713 5713 5712 5712 5712 5711 5711 5710 5710 5709 5708 5708 5707 5707 5706 5705 5705 5704 5704 5704 5704 5704 5704 5704 5704 5705 5706 5706
5733 5732 5731 5732 5733 5732 5731 5731 5732 5732 5732 5732 5732 5731 5731 5731 5730 5730 5731 5731 5732 5732 5732 5732 5732 5732 5732 5732 5732 5731 5731 5730 5730 5730 5729 5729 5729 5728 5728 5727 5727 5726 5726 5725 5725 5724 5723 5722 5722 5721 5720 5720 5719 5719 5718 5717 5717 5716 5715 5715 5714 5714 5713 5712 5711 5711 5709 5709 5708 5707 5706 5706 5705 5705 5704 5704 5704 5703 5703 5702 5702 5701 5701 5700 5699 5699 5698 5697 5697 5697 5696 5696 5696 5697 5697 5698 5698
5730 5728 5727 5728 5729 5728 5728 5728 5728 5728 5728 5729 5728 5728 5727 5727 5727 5727 5728 5728 5728 5728 5728 5728 5728 5728 5728 5728 5728 5728 5727 5727 5726 5726 5726 5725 5725 5724 5724 5723 5723 5722 5721 5721 5720 5719 5718 5717 5717 5716 5715 5715 5714 5713 5713 5712 5711 5711 5710 5710 5709 5708 5707 5706 5706 5705 5704 5703 5702 5701 5700 5699 5699 5698 5697 5696 5696 5695 5695 5694 5694 5694 5693 5693 5692 5692 5692 5691 5690 5690 5689 5689 5689 5689 5689 5690 5691
5726 5725 5724 5724 5725 5724 5724 5725 5724 5724 5724 5725 5724 5724 5723 5724 5724 5724 5724 5724 5724 5724 5724 5724 5724 5724 5724 5724 5724 5724 5723 5723 5723 5722 5722 5722 5721 5720 5720 5719 5719 5718 5717 5716 5715 5714 5713 5713 5712 5711 5710 5709 5709 5708 5707 5707 5706 5705 5705 5704 5704 5703 5702 5701 5700 5699 5698 5697 5695 5694 5693 5692 5692 5691 5690 5689 5688 5687 5687 5686 5686 5685 5685 5684 5684 5684 5683 5683 5683 5683 5682 5682 5682 5682 5682 5682 5682
5722 5721 5721 5720 5721 5721 5721 5721 5720 5720 5720 5721 5720 5719 5720 5721 5721 5721 5721 5721 5721 5721 5721 5721 5721 5721 5721 5721 5720 5720 5719 5719 5719 5718 5718 5717 5717 5716 5716 5715 5714 5713 5712 5711 5710 5709 5708 5708 5707 5706 5705 5704 5703 5703 5702 5701 5701 5700 5699 5699 5698 5697 5696 5694 5693 5692 5691 5690 5689 5688 5687 5685 5684 5683 5682 5681 5681 5680 5679 5679 5678 5677 5677 5676 5675 5675 5674 5674 5674 5674 5674 5674 5674 5674 5674 5674 5675
5719 5718 5717 5717 5717 5718 5717 5717 5717 5716 5717 5717 5716 5715 5717 5718 5718 5718 5717 5717 5717 5717 5717 5717 5717 5717 5717 5716 5716 5716 5715 5715 5715 5714 5714 5713 5712 5712 5711 5710 5709 5708 5707 5706 5705 5704 5703 5702 5701 5700 5699 5698 5698 5697 5697 5696 5695 5694 5693 5692 5691 5690 5689 5688 5687 5686 5684 5683 5682 5681 5680 5678 5677 5676 5675 5674 5673 5672 5672 5671 5670 5670 5669 5668 5668 5667 5667 5666 5665 5664 5664 5665 5665 5665 5665 5665 5665
5715 5714 5714 5713 5714 5715 5715 5714 5714 5713 5714 5714 5712 5712 5713 5714 5714 5714 5714 5714 5714 5714 5714 5714 5713 5713 5713 5712 5712 5711 5711 5711 5710 5710 5709 5708 5708 5707 5706 5705 5704 5703 5702 5701 5700 5699 5698 5697 5695 5695 5694 5693 5692 5691 5691 5690 5689 5688 5687 5686 5684 5683 5682 5681 5680 5678 5677 5676 5675 5673 5672 5671 5670 5669 5668 5667 5666 5665 5664 5663 5663 5662 5661 5661 5660 5660 5659 5658 5658 5656 5655 5655 5655 5656 5656 5656 5655
5711 5711 5711 5710 5710 5711 5712 5712 5711 5710 5710 5710 5708 5708 5710 5711 5711 5711 5711 5711 5710 5710 5710 5710 5709 5709 5708 5708 5707 5707 5707 5706 5706 5705 5704 5703 5702 5701 5700 5699 5698 5697 5696 5695 5694 5693 5692 5691 5690 5689 5688 5687 5686 5685 5685 5684 5683 5681 5680 5679 5677 5676 5675 5674 5673 5671 5670 5668 5667 5666 5665 5663 5662 5661 5660 5659 5658 5657 5657 5656 5655 5654 5653 5652 5652 5651 5651 5651 5650 5648 5647 5647 5646 5646 5646 5647 5647
5709 5707 5708 5708 5706 5705 5707 5709 5709 5707 5707 5705 5705 5705 5706 5707 5707 5707 5707 5706 5706 5706 5705 5705 5705 5704 5704 5703 5703 5702 5702 5701 5701 5700 5699 5698 5696 5695 5694 5694 5693 5692 5690 5689 5688 5687 5686 5684 5683 5682 5681 5681 5680 5679 5678 5677 5676 5675 5673 5671 5670 5669 5667 5666 5665 5664 5662 5661 5659 5658 5657 5655 5654 5653 5652 5651 5650 5649 5649 5648 5647 5646 5645 5644 5643 5643 5642 5642 5641 5640 5639 5638 5638 5638 5637 5637 5638
5706 5705 5704 5704 5704 5702 5702 5704 5705 5704 5703 5702 5701 5701 5702 5703 5703 5703 5703 5702 5702 5701 5701 5701 5700 5700 5699 5699 5698 5698 5697 5696 5695 5694 5693 5692 5691 5690 5689 5688 5687 5686 5685 5683 5682 5681 5679 5678 5677 5676 5675 5674 5673 5672 5671 5670 5669 5667 5666 5665 5663 5662 5660 5658 5657 5656 5654 5653 5652 5650 5649 5647 5646 5645 5643 5643 5642 5641 5640 5639 5638 5637 5636 5635 5634 5633 5633 5633 5632 5632 5630 5629 5629 5629 5628 5628 5628
5702 5702 5702 5701 5700 5698 5698 5699 5700 5700 5701 5699 5698 5697 5699 5700 5698 5698 5698 5698 5698 5697 5697 5696 5696 5695 5695 5694 5694 5693 5692 5691 5690 5689 5688 5687 5686 5685 5684 5682 5681 5680 5679 5677 5676 5674 5673 5671 5670 5669 5668 5668 5667 5665 5664 5663 5661 5660 5658 5657 5656 5654 5653 5651 5649 5648 5646 5645 5643 5642 5641 5639 5638 5637 5635 5634 5633 5632 5630 5629 5629 5628 5627 5625 5624 5624 5623 5623 5622 5622 5621 5620 5619 5619 5619 5619 5619
5697 5698 5699 5699 5697 5694 5694 5695 5696 5697 5697 5695 5694 5694 5695 5696 5694 5693 5693 5693 5693 5692 5692 5692 5691 5691 5690 5689 5688 5687 5686 5685 5684 5683 5682 5681 5680 5679 5678 5677 5676 5674 5673 5671 5670 5668 5667 5665 5664 5663 5662 5661 5660 5658 5657 5655 5654 5652 5650 5649 5648 5646 5645 5644 5642 5640 5638 5637 5635 5633 5632 5630 5629 5627 5626 5625 5624 5622 5621 5619 5619 5618 5617 5616 5615 5614 5613 5613 5612 5611 5611 5610 5609 5608 5608 5608 5609
5695 5694 5693 5694 5695 5692 5690 5691 5692 5692 5692 5691 5690 5691 5692 5691 5690 5689 5688 5688 5688 5688 5687 5687 5686 5686 5685 5684 5683 5682 5681 5680 5679 5678 5677 5676 5675 5674 5672 5671 5670 5668 5667 5665 5663 5662 5660 5659 5658 5656 5655 5654 5653 5651 5649 5648 5646 5645 5643 5641 5640 5638 5636 5635 5634 5632 5630 5629 5628 5626 5623 5622 5620 5618 5617 5616 5614 5612 5611 5609 5608 5607 5606 5605 5604 5603 5603 5602 5601 5600 5599 5599 5598 5597 5596 5595 5597
5692 5691 5689 5689 5690 5689 5688 5687 5688 5688 5687 5685 5686 5688 5688 5686 5685 5685 5684 5683 5683 5683 5682 5681 5681 5680 5680 5679 5678 5677 5676 5675 5674 5673 5672 5670 5669 5668 5667 5665 5664 5662 5661 5659 5657 5655 5654 5653 5651 5650 5648 5647 5646 5644 5641 5640 5639 5637 5636 5634 5632 5630 5629 5627 5626 5624 5622 5621 5619 5618 5616 5614 5612 5610 5608 5606 5605 5603 5601 5599 5598 5597 5595 5594 5593 5591 5591 5591 5590 5589 5588 5587 5586 5586 5585 5583 5583
5689 5688 5687 5686 5685 5684 5685 5684 5684 5683 5682 5681 5681 5682 5682 5682 5681 5680 5679 5679 5679 5678 5677 5676 5676 5675 5674 5673 5672 5672 5671 5669 5668 5667 5666 5665 5663 5662 5661 5659 5658 5656 5654 5652 5650 5649 5647 5646 5644 5643 5641 5640 5639 5637 5634 5632 5631 5630 5628 5627 5624 5623 5621 5619 5617 5615 5613 5612 5610 5609 5608 5606 5604 5601 5598 5596 5594 5593 5591 5589 5587 5585 5584 5583 5581 5580 5579 5578 5578 5576 5575 5575 5574 5573 5573 5571 5570
5685 5685 5684 5683 5681 5681 5681 5681 5680 5679 5678 5677 5677 5677 5677 5677 5677 5676 5675 5674 5674 5673 5673 5672 5671 5670 5669 5668 5667 5666 5665 5664 5662 5661 5660 5659 5657 5656 5655 5653 5652 5650 5648 5646 5644 5642 5641 5639 5638 5636 5634 5633 5632 5630 5627 5624 5623 5621 5620 5618 5616 5615 5613 5610 5608 5606 5604 5602 5600 5598 5598 5597 5596 5593 5590 5587 5585 5582 5580 5578 5576 5575 5573 5571 5570 5568 5567 5566 5565 5564 5562 5562 5561 5560 5559 5558 5557
5682 5681 5680 5679 5679 5678 5677 5677 5676 5675 5674 5673 5673 5673 5672 5672 5672 5672 5671 5670 5669 5669 5668 5667 5666 5665 5664 5663 5662 5660 5659 5658 5656 5655 5654 5653 5651 5650 5648 5647 5645 5643 5641 5640 5638 5636 5634 5632 5631 5629 5627 5626 5624 5623 5620 5617 5616 5614 5612 5610 5608 5606 5604 5601 5599 5596 5594 5592 5590 5588 5586 5585 5585 5584 5581 5578 5576 5573 5570 5568 5566 5565 5563 5561 5560 5558 5556 5555 5553 5552 5550 5549 5548 5547 5547 5546 5543
5678 5678 5677 5675 5675 5675 5675 5674 5672 5671 5670 5669 5669 5667 5668 5669 5667 5667 5667 5665 5665 5665 5663 5662 5661 5660 5658 5657 5656 5655 5653 5652 5650 5649 5648 5647 5645 5643 5642 5640 5639 5637 5635 5633 5632 5630 5628 5626 5624 5622 5620 5619 5617 5615 5613 5611 5609 5606 5604 5602 5600 5597 5595 5592 5590 5587 5585 5582 5580 5578 5575 5572 5572 5571 5569 5567 5566 5563 5561 5558 5555 5554 5552 5551 5549 5548 5546 5544 5542 5541 5539 5538 5536 5535 5534 5534 5532
5675 5674 5674 5673 5671 5671 5671 5669 5668 5667 5666 5666 5664 5662 5663 5664 5663 5662 5662 5661 5661 5660 5658 5657 5655 5654 5653 5652 5651 5649 5648 5646 5645 5643 5642 5640 5639 5637 5635 5634 5633 5631 5628 5627 5626 5624 5622 5620 5618 5615 5614 5612 5610 5608 5605 5603 5601 5599 5596 5594 5592 5590 5587 5584 5581 5579 5577 5574 5571 5569 5566 5562 5559 5558 5556 5554 5553 5552 5550 5547 5545 5543 5542 5540 5539 5537 5535 5533 5531 5529 5528 5527 5525 5523 5522 5522 5520
5671 5669 5670 5670 5668 5667 5666 5665 5663 5662 5661 5661 5660 5657 5657 5658 5659 5658 5658 5657 5656 5655 5653 5652 5650 5649 5648 5646 5645 5643 5642 5640 5639 5637 5636 5634 5633 5631 5629 5628 5627 5625 5622 5621 5620 5618 5616 5613 5611 5609 5607 5604 5603 5600 5598 5596 5594 5591 5588 5586 5583 5581 5579 5576 5573 5570 5567 5565 5563 5560 5556 5553 5549 5547 5544 5542 5540 5540 5539 5537 5534 5532 5531 5529 5528 5526 5524 5522 5520 5517 5516 5514 5512 5511 5509 5509 5508
5667 5666 5665 5665 5664 5663 5662 5661 5659 5658 5656 5656 5655 5653 5651 5651 5654 5655 5653 5652 5651 5650 5648 5646 5645 5644 5642 5641 5639 5637 5635 5634 5632 5631 5630 5629 5627 5626 5624 5623 5622 5620 5617 5615 5614 5612 5610 5607 5604 5602 5600 5598 5595 5593 5591 5588 5586 5583 5580 5577 5574 5571 5569 5566 5563 5560 5557 5555 5553 5550 5547 5543 5540 5537 5534 5531 5528 5528 5528 5526 5524 5522 5520 5518 5516 5515 5512 5510 5508 5505 5503 5501 5499 5497 5494 5494 5494
5663 5662 5661 5660 5659 5658 5657 5656 5655 5653 5652 5652 5651 5649 5646 5645 5649 5651 5648 5647 5646 5644 5643 5641 5640 5638 5636 5635 5633 5631 5630 5628 5626 5625 5624 5623 5622 5620 5619 5617 5617 5614 5611 5609 5607 5605 5603 5601 5598 5595 5593 5590 5588 5585 5583 5580 5577 5574 5571 5568 5565 5562 5559 5556 5553 5551 5548 5545 5543 5540 5537 5534 5531 5528 5525 5522 5517 5515 5516 5515 5513 5511 5509 5506 5504 5503 5500 5498 5495 5492 5489 5486 5484 5483 5479 5478 5478
5659 5658 5657 5656 5655 5654 5653 5652 5651 5649 5647 5649 5648 5645 5642 5640 5644 5647 5643 5642 5641 5639 5637 5636 5634 5632 5631 5629 5627 5626 5624 5623 5621 5620 5619 5618 5616 5615 5613 5611 5611 5608 5605 5602 5600 5598 5596 5594 5591 5588 5585 5582 5580 5577 5574 5571 5568 5565 5561 5558 5555 5553 5550 5547 5544 5541 5538 5536 5533 5531 5528 5525 5522 5519 5516 5513 5508 5504 5503 5503 5502 5500 5497 5495 5492 5490 5488 5485 5482 5479 5475 5472 5469 5467 5464 5461 5460
5655 5654 5653 5652 5651 5650 5649 5647 5647 5644 5643 5646 5645 5641 5638 5636 5639 5642 5640 5638 5636 5634 5632 5630 5628 5627 5626 5624 5623 5621 5620 5618 5617 5616 5614 5613 5611 5610 5608 5606 5605 5602 5599 5596 5594 5591 5589 5586 5584 5581 5577 5574 5572 5569 5566 5563 5559 5556 5552 5549 5546 5544 5541 5538 5535 5532 5529 5527 5524 5521 5518 5515 5513 5510 5506 5504 5499 5494 5491 5490 5489 5488 5485 5482 5479 5477 5474 5472 5469 5465 5460 5457 5454 5452 5449 5445 5442
5651 5650 5649 5648 5647 5646 5645 5643 5642 5640 5639 5642 5640 5637 5634 5632 5634 5637 5635 5633 5632 5630 5628 5625 5624 5623 5621 5620 5619 5617 5615 5614 5612 5611 5609 5608 5605 5604 5602 5599 5598 5596 5593 5590 5587 5584 5581 5579 5576 5573 5569 5566 5563 5560 5557 5554 5550 5547 5544 5540 5538 5534 5531 5528 5525 5522 5519 5517 5514 5511 5508 5505 5503 5500 5496 5493 5490 5486 5481 5477 5476 5474 5472 5469 5466 5463 5460 5458 5455 5451 5446 5442 5438 5435 5433 5429 5425
5647 5646 5645 5644 5642 5641 5640 5639 5638 5636 5635 5636 5635 5632 5629 5628 5630 5632 5631 5629 5627 5626 5624 5622 5620 5619 5617 5616 5614 5612 5611 5609 5608 5606 5604 5602 5600 5598 5596 5593 5591 5589 5587 5584 5581 5578 5574 5571 5568 5565 5562 5558 5555 5552 5549 5546 5542 5538 5535 5532 5529 5525 5522 5519 5515 5512 5509 5506 5504 5501 5498 5495 5493 5490 5486 5483 5480 5476 5471 5467 5464 5460 5457 5455 5452 5449 5446 5442 5439 5437 5433 5427 5421 5418 5415 5410 5406
5643 5642 5641 5640 5639 5636 5636 5635 5633 5631 5630 5630 5630 5627 5625 5625 5626 5627 5625 5623 5623 5622 5620 5618 5616 5615 5613 5612 5610 5608 5606 5604 5603 5601 5599 5597 5594 5592 5590 5588 5585 5583 5580 5577 5575 5571 5567 5564 5561 5558 5554 5551 5548 5545 5541 5538 5534 5530 5526 5523 5520 5516 5513 5510 5506 5503 5500 5497 5494 5491 5488 5485 5483 5479 5476 5473 5470 5466 5461 5457 5454 5450 5445 5442 5439 5435 5431 5427 5423 5420 5417 5412 5405 5399 5395 5391 5387
5639 5638 5637 5636 5635 5632 5632 5631 5628 5626 5625 5624 5625 5623 5621 5620 5622 5622 5620 5618 5617 5617 5615 5613 5612 5611 5609 5607 5606 5604 5602 5600 5598 5596 5594 5591 5589 5587 5584 5582 5579 5576 5574 5571 5568 5564 5561 5557 5554 5550 5547 5544 5540 5537 5533 5529 5525 5521 5518 5515 5512 5508 5505 5501 5498 5494 5491 5487 5484 5481 5478 5475 5473 5470 5466 5463 5460 5456 5452 5447 5443 5439 5435 5430 5426 5422 5418 5413 5408 5403 5400 5396 5389 5382 5376 5373 5370
5635 5634 5633 5632 5631 5629 5628 5627 5626 5623 5621 5620 5621 5619 5618 5617 5616 5617 5615 5613 5612 5611 5610 5609 5608 5606 5605 5603 5601 5599 5597 5595 5593 5591 5588 5586 5584 5581 5578 5575 5573 5570 5567 5564 5561 5558 5554 5550 5547 5543 5540 5536 5533 5529 5525 5521 5518 5514 5510 5507 5504 5501 5497 5493 5489 5486 5482 5478 5475 5471 5468 5465 5462 5459 5456 5453 5450 5446 5442 5438 5433 5428 5423 5418 5413 5408 5403 5399 5394 5388 5384 5379 5373 5366 5360 5357 5354
5632 5631 5629 5629 5627 5625 5623 5622 5622 5620 5617 5617 5617 5616 5615 5614 5613 5613 5611 5609 5607 5606 5605 5605 5603 5602 5600 5598 5596 5594 5591 5589 5587 5585 5583 5581 5578 5575 5573 5569 5566 5563 5560 5557 5554 5551 5548 5544 5540 5536 5532 5529 5525 5522 5518 5514 5510 5506 5503 5499 5496 5493 5489 5485 5481 5477 5473 5470 5466 5462 5458 5455 5452 5449 5446 5443 5439 5436 5431 5427 5423 5418 5412 5407 5401 5395 5389 5384 5378 5374 5368 5363 5358 5352 5347 5343 5340
5628 5627 5626 5625 5624 5622 5620 5618 5618 5616 5614 5613 5613 5611 5612 5611 5610 5610 5608 5605 5604 5602 5601 5600 5599 5598 5596 5593 5591 5589 5587 5584 5582 5580 5578 5576 5573 5570 5567 5563 5560 5557 5554 5551 5548 5545 5541 5537 5533 5529 5525 5522 5518 5514 5511 5507 5503 5499 5495 5491 5487 5484 5481 5477 5473 5469 5465 5461 5457 5453 5449 5445 5442 5438 5435 5432 5428 5424 5420 5416 5411 5406 5401 5395 5390 5384 5376 5369 5363 5358 5353 5348 5344 5339 5334 5331 5327
5625 5624 5623 5622 5620 5619 5617 5615 5614 5613 5610 5610 5609 5608 5608 5607 5607 5607 5605 5603 5601 5599 5597 5596 5594 5593 5590 5588 5586 5584 5582 5580 5577 5575 5573 5570 5568 5565 5562 5558 5554 5551 5548 5545 5542 5538 5534 5530 5527 5523 5518 5515 5511 5507 5503 5499 5495 5491 5487 5483 5479 5476 5472 5469 5464 5460 5456 5452 5447 5443 5439 5435 5432 5428 5424 5420 5417 5413 5409 5404 5399 5394 5389 5383 5378 5372 5365 5357 5350 5343 5339 5335 5331 5327 5322 5319 5316
5622 5621 5620 5618 5617 5615 5613 5612 5611 5609 5607 5607 5606 5605 5605 5604 5603 5603 5601 5599 5597 5595 5593 5591 5590 5588 5586 5583 5581 5579 5577 5574 5572 5570 5567 5564 5562 5559 5556 5553 5549 5546 5542 5539 5535 5531 5528 5524 5520 5516 5511 5507 5503 5499 5496 5492 5487 5483 5479 5475 5471 5467 5464 5460 5456 5451 5447 5443 5438 5434 5430 5426 5422 5418 5414 5410 5405 5401 5397 5393 5388 5383 5377 5372 5365 5359 5353 5346 5340 5333 5326 5321 5318 5315 5311 5308 5305
5619 5618 5617 5615 5614 5612 5610 5609 5609 5606 5605 5604 5601 5601 5603 5602 5599 5598 5596 5594 5593 5590 5588 5587 5585 5583 5581 5578 5576 5574 5571 5569 5566 5564 5561 5558 5555 5552 5550 5547 5543 5539 5536 5532 5528 5525 5521 5517 5513 5508 5504 5500 5496 5492 5488 5484 5480 5476 5471 5467 5463 5459 5455 5451 5447 5443 5438 5434 5429 5425 5421 5416 5412 5408 5404 5399 5395 5390 5386 5381 5376 5371 5365 5360 5353 5347 5340 5334 5328 5323 5318 5312 5307 5304 5301 5298 5295
5616 5615 5613 5612 5611 5609 5608 5607 5606 5605 5602 5601 5598 5596 5599 5599 5596 5595 5593 5590 5588 5586 5584 5582 5580 5578 5576 5574 5571 5568 5565 5563 5560 5557 5554 5551 5548 5545 5542 5539 5536 5532 5528 5525 5521 5517 5513 5510 5505 5501 5497 5492 5489 5485 5481 5477 5473 5468 5463 5459 5455 5451 5446 5442 5438 5434 5429 5425 5420 5415 5411 5407 5403 5398 5394 5390 5385 5380 5375 5370 5365 5359 5353 5348 5342 5335 5328 5322 5316 5312 5309 5304 5298 5294 5291 5289 5286